GOES 15

Last updated on Tue Sep 22 2026 00:03:02 GMT+0000 (Coordinated Universal Time)

1 36411U 10008A 26264.57287772 .00000019 00000+0 00000+0 0 9997 2 36411 1.5364 81.7890 0005147 83.4695 104.7419 1.00272615 60603
UTC large
Height (km)
Speed (km/s)
/
Latitude / Longitude
Inclination (degrees)
Orbital Period (minutes)
Azimuth
Elevation
Range (km)
Doppler Factor

Next 0 passes for location: London (51.5072 / 0.1276)

No passes found over London.
GOES 15